Location: Castelnau
(43.6639°N, 0.8431°W)
Time: 15:51:46
(UTC+00:00)

Cosmos 1992 Rocket - Pass Details

Date: 13 January 2026
Orbit: 754 x 761 km, 74.0° (Epoch: 10 February)

Event Time Altitude Azimuth Distance (km) Brightness Sun altitude
Exits shadow 05:56:55 17° 331° (NNW) 1,841 5.6 -17.3°
Maximum altitude 06:00:51 63° 254° (WSW) 843 3.9 -16.6°
Drops below altitude 10° 06:05:58 10° 174° (S) 2,281 6.7 -15.7°
Sets 06:08:20 0° 171° (S) 3,203 7.6 -15.3°
